Flag for Germany Weather past 2 weeks in Fehmarn (Puttgarden), Schleswig-Holstein, Germany

Now
45 °F

Rain. Low clouds.


Feels Like: 42 °F
Forecast: 41 / 43 °F
Wind: 6 mph from South

Location: Westermarkelsdorf

Current Time: Mar 30, 2015 at 1:00:44 AM

Latest Report: Mar 30, 2015 at 12:00 AM


Visibility: 1 mi

Pressure: 28.85 "Hg

Humidity: 99%

Dew point: 45 °F

Location of Fehmarn (Puttgarden)Location

Historic Weather in Fehmarn (Puttgarden) — Graph

°F

Fehmarn (Puttgarden) temperature yesterday

Maximum temperature yesterday: 47 °F (at 5:00 AM)
Minimum temperature yesterday: 44 °F (at 8:00 PM)
Average temperature yesterday: 46 °F

Past Weeks' High & Low Weather Summary

 TemperatureHumidityPressure
High50 °F (Mar 19, 12:00 PM)100% (Mar 20, 9:00 AM)30.55 "Hg (Mar 20, 9:00 AM)
Low32 °F (Mar 22, 5:00 AM)45% (Mar 19, 5:00 PM)28.97 "Hg (Mar 29, 10:00 PM)
Average41 °F84%30.09 "Hg
* Reported Mar 14 9:00 PM — Mar 29 10:00 PM, Fehmarn (Puttgarden), Weather by CustomWeather, © 2015

Note: Actual official high and low records may vary slightly from our data, if they occured in-between our weather recording intervals... More about our weather records

Advertising

Fehmarn (Puttgarden) weather history for previous 24 hours

 ConditionsComfort  
Time TempWeatherWind HumidityBarometerVisibility
10:00 PM
Sun, Mar 29
44 °FRain. Low clouds.7 mph100%28.97 "Hg2 mi
9:00 PM45 °FLight freezing rain. Overcast.6 mph93%29.03 "Hg15 mi
8:00 PM44 °FLight freezing rain. Overcast.7 mph94%29.09 "Hg8 mi
7:00 PM46 °FOvercast.5 mph87%29.15 "Hg17 mi
6:00 PM45 °FLight rain. Overcast.6 mph84%29.21 "Hg4 mi
4:00 PM46 °FOvercast.7 mph82%29.26 "Hg11 mi
3:00 PM47 °FOvercast.6 mph84%29.29 "Hg9 mi
2:00 PM47 °FPartly sunny.7 mph87%29.32 "Hg15 mi
1:00 PM46 °FLight rain. Overcast.8 mph95%29.35 "Hg6 mi
12:00 PM46 °FOvercast.6 mph91%29.35 "Hg9 mi
11:00 AM46 °FOvercast.7 mph92%29.38 "Hg10 mi
10:00 AM45 °FOvercast.8 mph100%29.38 "Hg3 mi
9:00 AM45 °FOvercast.9 mph95%29.38 "Hg8 mi
8:00 AM45 °FOvercast.12 mph96%29.41 "Hg8 mi
7:00 AM47 °FLight rain. Low clouds.7 mph99%29.38 "Hg3 mi
6:00 AM47 °FRain. Low clouds.6 mph100%29.41 "Hg1 mi
5:00 AM47 °FDrizzle. Low clouds.7 mph97%29.44 "Hg2 mi
4:00 AM46 °FLow clouds.8 mph98%29.47 "Hg2 mi
3:00 AM45 °FLight rain. Low clouds.8 mph100%29.53 "Hg1 mi
1:00 AM45 °FFog.9 mph97%29.58 "Hg2 mi
Weather by CustomWeather, © 2015

See weather overviewHow to use our weather pages